Regional Weather Roundup
Issued by NWS

Home | Current Version | Previous Version | Graphics & Text | Print | Product List | Glossary On
Versions: 1 2 3 4 5 6 7 8 9 10 11 12 13 14 15 16 17 18 19 20 21 22 23 24 25 26 27 28 29 30 31 32 33 34 35 36 37 38 39 40 41 42 43 44 45 46 47 48 49 50
000
ASUS45 KTFX 091704
RWRMT
MONTANA HOURLY WEATHER ROUNDUP
NATIONAL WEATHER SERVICE GREAT FALLS MT
1104 AM MDT WED JUL 9 2014

NOTE: "FAIR" INDICATES FEW OR NO CLOUDS BELOW 12000 FEET WITH NO
SIGNIFICANT WEATHER AND/OR OBSTRUCTIONS TO VISIBILITY.

* THESE STATIONS ARE NOT UNDER NWS QUALITY CONTROL. THEY DO NOT
   REPORT WEATHER SUCH AS PRECIPITATION OR FOG.

MTZ001>007-043-091800-
WEST OF THE DIVIDE
CITY           SKY/WX    TMP DP  RH WIND       PRES   REMARKS
KALISPELL      SUNNY     75  55  50 CALM      29.94F
MISSOULA       PTSUNNY   73  48  41 SE7       29.99F
BUTTE          PTSUNNY   72  48  43 CALM      30.11F
MULLAN PASS    PTSUNNY   70  46  42 CALM      30.13F
* ESSEX        N/A      N/A N/A N/A N/A        N/A
* LINCOLN      N/A       72  52  49 S3         N/A
* LOOKOUT PASS N/A       75  48  39 VRB5       N/A
* POLSON       N/A       78  58  50 S3         N/A
* RONAN APT    PTCLDY    79  57  47 N/A        N/A
* SEELEY LAKE  N/A       77  52  42 SE3        N/A
* THOMP F APT  PTCLDY    77  46  33 S5         N/A
* YAAK HILL    N/A       78  52  40 SE2        N/A
$$

MTZ008-052>055-091800-
SOUTHWEST MONTANA
CITY           SKY/WX    TMP DP  RH WIND       PRES   REMARKS
BOZEMAN        PTCLDY    75  54  48 CALM      30.04F
DILLON         PTCLDY    75  52  45 VRB3      30.07F
W YELLOWSTONE  SUNNY     73  39  29 SW3       30.18F
* THREE FORKS  PTCLDY    75  70  85 N/A        N/A
* BOULDER HILL N/A       72  48  43 SW8        N/A
* MONIDA PASS  N/A       74  43  33 NW1        N/A
* RAYNOLDS PAS N/A       70  48  46 S11G16     N/A
* WHITEHALL    N/A       74  49  41 SE3        N/A
* WISE RIVER   N/A       68  49  51 W6         N/A
$$

MTZ009>010-012-014-046-048-049-054-091800-
EAST SLOPES AND CENTRAL MONTANA
CITY           SKY/WX    TMP DP  RH WIND       PRES   REMARKS
CUT BANK       SUNNY     77  54  45 SE7       29.95F
GREAT FALLS    SUNNY     81  52  37 S6        29.96F
HELENA         PTCLDY    81  50  34 VRB5      29.98F
* CONRAD       SUNNY     77  59  54 N/A        N/A
* DEARBORN     N/A       81  50  34 N2         N/A
* EAST GLACIER N/A       77  47  35 W9G15      N/A
* MONARCH      N/A       77  42  29 N4         N/A
* ROGERS PASS  N/A       72  46  40 SE7G13     N/A
* SAINT MARY   N/A       79  50  36 SW6G13     N/A
* SWEET GRASS  N/A       75  51  43 S14        N/A
$$

MTZ011-013-016-021-035-040-045-047-050-051-091800-
NORTH CENTRAL MONTANA
CITY           SKY/WX    TMP DP  RH WIND       PRES   REMARKS
HAVRE          SUNNY     81  52  37 E6        29.92F
LEWISTOWN      SUNNY     82  46  28 VRB5      30.00F
* CHESTER      N/A       76  48  37 S4G12      N/A
* DENTON       N/A       82  51  34 NE3G8      N/A
* GEYSER       N/A       82  46  28 N4G12      N/A
* JUDITH GAP   N/A       77  51  40 SW2G11     N/A
* LOMA         N/A       78  49  36 SW4        N/A
$$

MTZ017>020-022>027-061-062-091800-
NORTHEAST MONTANA
CITY           SKY/WX    TMP DP  RH WIND       PRES   REMARKS
GLASGOW        SUNNY     79  55  44 SE12      29.96F
GLENDIVE       SUNNY     79  54  42 E9        30.00F
JORDAN         SUNNY     82  46  28 SE10      29.95F
SIDNEY         SUNNY     79  61  54 E5        30.02F
WOLF POINT     SUNNY     81  54  39 VRB5      29.97F
* BEAVER HILL  N/A       76  53  45 E12G17     N/A
* CIRCLE       N/A       79  58  49 SE6        N/A
* LINDSAY DVD  N/A       73  57  57 SE9        N/A
* NAVAJO       N/A       73  59  62 S9         N/A
* SACO         N/A       77  60  56 E7         N/A
$$

MTZ028>042-056>058-091800-
SOUTHCENTRAL AND SOUTHEAST MONTANA
CITY           SKY/WX    TMP DP  RH WIND       PRES   REMARKS
BAKER          SUNNY     81  52  37 SE13      30.03F
BILLINGS       SUNNY     75  50  42 S3        29.99F
LIVINGSTON     SUNNY     81  52  37 VRB3      30.03F
MILES CITY     SUNNY     81  55  41 VRB7      29.97F HI  81
* LAUREL APT   SUNNY     75  48  39 N/A        N/A
* ROUNDUP APT  SUNNY     79  46  31 N/A        N/A
* ALZADA       N/A       74  54  50 E9         N/A
* HYSHAM       N/A       82  55  40 E6         N/A   HI  81
* LAME DEER    N/A       73  55  53 SE7        N/A
* REED POINT   N/A       81  50  34 N2         N/A
* ROSCOE HILL  N/A       75  47  37 NE4        N/A
$$

REGIONAL REPORTS...DAKOTAS
CITY           SKY/WX    TMP DP  RH WIND       PRES   REMARKS
WILLISTON      HAZE      77  55  47 S5        30.01F
DICKINSON      SUNNY     75  55  50 VRB5      30.03F
CROSBY         SUNNY     72  57  59 CALM      30.03F
BISMARCK       SUNNY     72  57  59 N/A       30.05S
GRAND FORKS    PTCLDY    70  52  53 N7        30.04S
FARGO          SUNNY     72  52  49 N10G18    30.03S
BUFFALO SD     SUNNY     79  55  44 S13       29.98F
RAPID CITY     SUNNY     73  57  57 SE7       30.06F
$$

REGIONAL REPORTS...WYOMING/IDAHO/WASHINGTON
CITY           SKY/WX    TMP DP  RH WIND       PRES   REMARKS
GILLETTE       SUNNY     75  52  45 SE8       30.06F
SHERIDAN       SUNNY     79  55  44 CALM      30.02F
YELLOWSTONE LA PTCLDY    64  45  50 VRB3      30.30F
SALMON         PTCLDY    75  46  36 CALM      30.01F
MULLAN PASS    PTSUNNY   70  46  42 CALM      30.13S
SAND POINT     PTCLDY    75  57  54 SE3       29.90F
SPOKANE        PTSUNNY   75  52  45 S7        29.91S
$$

REGIONAL REPORTS...SASKATCHEWAN
CITY           SKY/WX    TMP DP  RH WIND       PRES   REMARKS
SWIFT CURRENT  HAZE      75  57  54 S13       29.93F

$$




USA.gov is the U.S. government's official web portal to all federal, state and local government web resources and services.